ZS1BR-13 Weather Reports


Display with metric or nautical units.
time (UTC)temp
F
wind
direction
speed
MPH
gust
MPH
rain 1hr
in
rain 24hr
in
rain mn
in
humidity
%
barometer
mb
20260509185546 64 0 0.0 0.0 0.00 0.00 0.00 60 1004.2
20260509184538 64 0 0.0 0.0 0.00 0.00 0.00 59 1004.3
20260509183530 64 0 0.0 0.0 0.00 0.00 0.00 59 1004.6
20260509182523 64 0 0.0 0.0 0.00 0.00 0.00 58 1004.7
20260509181616 64 0 0.0 0.0 0.00 0.00 0.00 58 1004.9
20260509180609 64 0 0.0 0.0 0.00 0.00 0.00 58 1005.1
20260509175602 64 0 0.0 0.0 0.00 0.00 0.00 58 1005.2
20260509174555 65 0 0.0 0.0 0.00 0.00 0.00 58 1005.3
20260509173548 65 0 0.0 0.0 0.00 0.00 0.00 57 1005.4
20260509172541 65 0 0.0 0.0 0.00 0.00 0.00 57 1005.3
20260509171535 65 0 0.0 0.0 0.00 0.00 0.00 57 1005.4
20260509170527 65 0 0.0 0.0 0.00 0.00 0.00 56 1005.6
20260509165520 65 0 0.0 0.0 0.00 0.00 0.00 55 1005.6
20260509164614 65 0 0.0 0.0 0.00 0.00 0.00 54 1005.6
20260509163607 65 0 0.0 0.0 0.00 0.00 0.00 53 1005.7
20260509162559 65 0 0.0 0.0 0.00 0.00 0.00 52 1005.8
20260509161551 66 0 0.0 0.0 0.00 0.00 0.00 52 1005.9
20260509160545 66 0 0.0 0.0 0.00 0.00 0.00 52 1006.0
20260509155538 66 0 0.0 0.0 0.00 0.00 0.00 52 1006.2
20260509154531 66 0 0.0 0.0 0.00 0.00 0.00 53 1006.2
20260509153524 66 0 0.0 0.0 0.00 0.00 0.00 51 1006.2
20260509152617 67 0 0.0 0.0 0.00 0.00 0.00 50 1006.0
20260509151611 67 0 0.0 0.0 0.00 0.00 0.00 50 1006.0
20260509150604 67 0 0.0 0.0 0.00 0.00 0.00 49 1006.1
20260509145557 67 0 0.0 0.0 0.00 0.00 0.00 48 1006.1
20260509144549 67 0 0.0 0.0 0.00 0.00 0.00 48 1006.2
20260509143542 68 0 0.0 0.0 0.00 0.00 0.00 47 1006.3
20260509142535 68 0 0.0 0.0 0.00 0.00 0.00 45 1006.0
20260509141528 68 0 0.0 0.0 0.00 0.00 0.00 46 1006.0
20260509140521 69 0 0.0 0.0 0.00 0.00 0.00 46 1006.1
20260509135615 69 0 0.0 0.0 0.00 0.00 0.00 47 1006.2
20260509134608 69 0 0.0 0.0 0.00 0.00 0.00 48 1006.3
20260509133600 69 0 0.0 0.0 0.00 0.00 0.00 48 1006.4
20260509132553 69 0 0.0 0.0 0.00 0.00 0.00 48 1006.5
20260509131546 69 0 0.0 0.0 0.00 0.00 0.00 48 1006.5
20260509130538 69 0 0.0 0.0 0.00 0.00 0.00 47 1006.6
20260509125530 69 0 0.0 0.0 0.00 0.00 0.00 47 1006.7
20260509124523 69 0 0.0 0.0 0.00 0.00 0.00 47 1007.0
20260509123616 69 0 0.0 0.0 0.00 0.00 0.00 46 1007.0
20260509122609 68 0 0.0 0.0 0.00 0.00 0.00 46 1007.4
20260509121602 68 0 0.0 0.0 0.00 0.00 0.00 46 1007.8
20260509120555 68 0 0.0 0.0 0.00 0.00 0.00 47 1008.0
20260509115548 68 0 0.0 0.0 0.00 0.00 0.00 47 1008.1
20260509114542 67 0 0.0 0.0 0.00 0.00 0.00 48 1008.1
20260509113535 67 0 0.0 0.0 0.00 0.00 0.00 50 1008.3
20260509112526 67 0 0.0 0.0 0.00 0.00 0.00 51 1008.6
20260509111520 66 0 0.0 0.0 0.00 0.00 0.00 52 1008.7
20260509110612 66 0 0.0 0.0 0.00 0.00 0.00 53 1008.9
20260509105606 65 0 0.0 0.0 0.00 0.00 0.00 57 1009.1
20260509104558 65 0 0.0 0.0 0.00 0.00 0.00 58 1009.1
20260509103551 65 0 0.0 0.0 0.00 0.00 0.00 59 1009.0
20260509102544 64 0 0.0 0.0 0.00 0.00 0.00 62 1009.4
20260509101537 64 0 0.0 0.0 0.00 0.00 0.00 64 1009.4
20260509100529 64 0 0.0 0.0 0.00 0.00 0.00 66 1009.6
20260509095522 63 0 0.0 0.0 0.00 0.00 0.00 67 1009.7
20260509094616 63 0 0.0 0.0 0.00 0.00 0.00 68 1009.7
20260509093609 62 0 0.0 0.0 0.00 0.00 0.00 70 1009.9
20260509092601 62 0 0.0 0.0 0.00 0.00 0.00 72 1010.2
20260509091555 61 0 0.0 0.0 0.00 0.00 0.00 72 1010.4
20260509090547 61 0 0.0 0.0 0.00 0.00 0.00 72 1010.6
20260509085539 61 0 0.0 0.0 0.00 0.00 0.00 72 1010.5
20260509084530 61 0 0.0 0.0 0.00 0.00 0.00 72 1010.7
20260509083523 60 0 0.0 0.0 0.00 0.00 0.00 73 1010.9
20260509082616 60 0 0.0 0.0 0.00 0.00 0.00 73 1011.0
20260509081609 60 0 0.0 0.0 0.00 0.00 0.00 73 1011.1
20260509080602 60 0 0.0 0.0 0.00 0.00 0.00 72 1011.2
20260509075555 60 0 0.0 0.0 0.00 0.00 0.00 72 1011.3
20260509074548 59 0 0.0 0.0 0.00 0.00 0.00 71 1011.4
20260509073541 59 0 0.0 0.0 0.00 0.00 0.00 70 1011.3
20260509072534 59 0 0.0 0.0 0.00 0.00 0.00 70 1011.4
20260509071526 59 0 0.0 0.0 0.00 0.00 0.00 69 1011.5
20260509070519 59 0 0.0 0.0 0.00 0.00 0.00 68 1011.4
20260509065612 59 0 0.0 0.0 0.00 0.00 0.00 67 1011.5
20260509064606 59 0 0.0 0.0 0.00 0.00 0.00 67 1011.5
20260509063558 59 0 0.0 0.0 0.00 0.00 0.00 66 1011.5
20260509062552 58 0 0.0 0.0 0.00 0.00 0.00 66 1011.4
20260509061545 58 0 0.0 0.0 0.00 0.00 0.00 66 1011.4
20260509060537 58 0 0.0 0.0 0.00 0.00 0.00 66 1011.5
20260509055530 58 0 0.0 0.0 0.00 0.00 0.00 66 1011.4
20260509054523 58 0 0.0 0.0 0.00 0.00 0.00 65 1011.5
20260509053616 58 0 0.0 0.0 0.00 0.00 0.00 65 1011.7
20260509052609 58 0 0.0 0.0 0.00 0.00 0.00 65 1011.6
20260509051603 58 0 0.0 0.0 0.00 0.00 0.00 65 1011.7
20260509050556 58 0 0.0 0.0 0.00 0.00 0.00 65 1011.8
20260509045549 58 0 0.0 0.0 0.00 0.00 0.00 65 1011.8
20260509044542 58 0 0.0 0.0 0.00 0.00 0.00 65 1011.8
20260509043535 58 0 0.0 0.0 0.00 0.00 0.00 66 1011.9
20260509042528 59 0 0.0 0.0 0.00 0.00 0.00 65 1011.9
20260509041521 59 0 0.0 0.0 0.00 0.00 0.00 65 1012.0
20260509040614 59 0 0.0 0.0 0.00 0.00 0.00 65 1012.0
20260509035608 59 0 0.0 0.0 0.00 0.00 0.00 65 1012.0
20260509034600 59 0 0.0 0.0 0.00 0.00 0.00 65 1012.1
20260509033553 59 0 0.0 0.0 0.00 0.00 0.00 65 1012.2
20260509032547 59 0 0.0 0.0 0.00 0.00 0.00 66 1012.2
20260509031538 59 0 0.0 0.0 0.00 0.00 0.00 66 1012.3
20260509030531 59 0 0.0 0.0 0.00 0.00 0.00 65 1012.4
20260509025523 59 0 0.0 0.0 0.00 0.00 0.00 65 1012.4
20260509024617 59 0 0.0 0.0 0.00 0.00 0.00 65 1012.6
20260509023610 59 0 0.0 0.0 0.00 0.00 0.00 65 1012.7
20260509022603 59 0 0.0 0.0 0.00 0.00 0.00 65 1012.9
20260509021556 60 0 0.0 0.0 0.00 0.00 0.00 65 1012.9
20260509020549 60 0 0.0 0.0 0.00 0.00 0.00 65 1013.0
20260509015541 60 0 0.0 0.0 0.00 0.00 0.00 65 1013.1
20260509014535 60 0 0.0 0.0 0.00 0.00 0.00 65 1013.3
20260509013528 60 0 0.0 0.0 0.00 0.00 0.00 65 1013.4
20260509012521 60 0 0.0 0.0 0.00 0.00 0.00 65 1013.5
20260509011614 60 0 0.0 0.0 0.00 0.00 0.00 65 1013.6
20260509010607 60 0 0.0 0.0 0.00 0.00 0.00 65 1013.8
20260509005600 61 0 0.0 0.0 0.00 0.00 0.00 64 1014.0
20260509004553 61 0 0.0 0.0 0.00 0.00 0.00 64 1014.0
20260509003546 61 0 0.0 0.0 0.00 0.00 0.00 65 1014.1
20260509002538 61 0 0.0 0.0 0.00 0.00 0.00 64 1014.2
20260509001531 61 0 0.0 0.0 0.00 0.00 0.00 64 1014.3
20260509000524 61 0 0.0 0.0 0.00 0.00 0.00 64 1014.4
20260508235617 62 0 0.0 0.0 0.00 0.00 0.00 64 1014.5
20260508234611 62 0 0.0 0.0 0.00 0.00 0.00 64 1014.5
20260508233604 62 0 0.0 0.0 0.00 0.00 0.00 64 1014.5
20260508232557 62 0 0.0 0.0 0.00 0.00 0.00 64 1014.5
20260508231550 62 0 0.0 0.0 0.00 0.00 0.00 64 1014.6
20260508230544 62 0 0.0 0.0 0.00 0.00 0.00 65 1014.6
20260508225534 62 0 0.0 0.0 0.00 0.00 0.00 65 1014.6
20260508224527 63 0 0.0 0.0 0.00 0.00 0.00 65 1014.8
20260508223520 63 0 0.0 0.0 0.00 0.00 0.00 66 1014.8
20260508222613 63 0 0.0 0.0 0.00 0.00 0.00 66 1015.0
20260508221606 63 0 0.0 0.0 0.00 0.00 0.00 66 1015.1
20260508220559 63 0 0.0 0.0 0.00 0.00 0.00 66 1015.2
20260508215552 63 0 0.0 0.0 0.00 0.00 0.00 66 1015.3
20260508214545 63 0 0.0 0.0 0.00 0.00 0.00 66 1015.4
20260508213538 64 0 0.0 0.0 0.00 0.00 0.00 66 1015.5
20260508212530 64 0 0.0 0.0 0.00 0.00 0.00 66 1015.6
20260508211524 64 0 0.0 0.0 0.00 0.00 0.00 66 1015.8
20260508210617 64 0 0.0 0.0 0.00 0.00 0.00 66 1015.8
20260508205610 64 0 0.0 0.0 0.00 0.00 0.00 66 1015.9
20260508204602 64 0 0.0 0.0 0.00 0.00 0.00 66 1015.9
20260508203555 64 0 0.0 0.0 0.00 0.00 0.00 66 1016.0
20260508202549 64 0 0.0 0.0 0.00 0.00 0.00 66 1016.1
20260508201542 65 0 0.0 0.0 0.00 0.00 0.00 66 1016.2
20260508200535 65 0 0.0 0.0 0.00 0.00 0.00 66 1016.2
20260508195527 65 0 0.0 0.0 0.00 0.00 0.00 65 1016.1
20260508194520 65 0 0.0 0.0 0.00 0.00 0.00 66 1016.2
20260508193614 65 0 0.0 0.0 0.00 0.00 0.00 66 1016.4
20260508192607 65 0 0.0 0.0 0.00 0.00 0.00 66 1016.4
20260508191559 65 0 0.0 0.0 0.00 0.00 0.00 66 1016.4
20260508190553 65 0 0.0 0.0 0.00 0.00 0.00 66 1016.5